Carlsbad, NM

12:04 PM MDT on May 27, 2017 (GMT -0600)
Cavern City

Weather History for KCNM - January, 2014

Change the Weather History Date:

Saturday, January 4, 2014

  Actual Average Record
Temperature  
Mean Temperature 50 °F -  
Max Temperature 69 °F 51 °F 70 °F (2007)
Min Temperature 30 °F 25 °F 0 °F (1972)
Degree Days  
Heating Degree Days 16    
Moisture  
Dew Point 22 °F    
Average Humidity 33    
Maximum Humidity 79    
Minimum Humidity 13    
Precipitation  
Precipitation 0.00 in - - ()
Sea Level Pressure  
Sea Level Pressure 29.73 in    
Wind  
Wind Speed 12 mph (West)    
Max Wind Speed 32 mph    
Max Gust Speed 46 mph    
Visibility 10 miles    
Events Rain    
Averages and records for this station are not official NWS values.
T = Trace of Precipitation, MM = Missing Value Source: NWS Daily Summary

Daily Weather History Graph

Daily Weather History Graph

Search for Another Location

Airport or City:

Trip Planner

Search our weather history database for the weather conditions in past years. The results will help you decide how hot, cold, wet, or windy it might be!

Date:

Astronomy

Jan. 04, 2014 Rise Set
Actual Time 6:58 AM MST 5:05 PM MST
Civil Twilight 6:32 AM MST 5:32 PM MST
Nautical Twilight 6:01 AM MST 6:02 PM MST
Astronomical Twilight 5:31 AM MST 6:32 PM MST
Moon 9:19 AM MST (1/4) 9:12 PM MST (1/4)
Length of Visible Light 11h 00m
Length of Day
10h 06m
Waxing Crescent, 16% of the Moon is Illuminated
Jan 4
Waxing Crescent
Jan 7
First Quarter
Jan 15
Full
Jan 23
Last Quarter
Jan 30
New

Hourly Weather History & Observations

Time (MST) Temp. Windchill Dew Point Humidity Pressure Visibility Wind Dir Wind Speed Gust Speed Precip Events Conditions
12:53 AM 46.0 °F 41.9 °F 26.1 °F 46% 29.78 in 10.0 mi East 8.1 mph - N/A   Clear
1:53 AM 57.0 °F - 21.9 °F 26% 29.74 in 10.0 mi Variable 3.5 mph - N/A   Clear
2:53 AM 57.9 °F - 21.9 °F 25% 29.74 in 10.0 mi Variable 5.8 mph 23.0 mph N/A   Clear
3:53 AM 45.0 °F 43.5 °F 26.1 °F 48% 29.77 in 10.0 mi Variable 3.5 mph - N/A   Clear
4:53 AM 36.0 °F - 26.1 °F 67% 29.79 in 10.0 mi Calm Calm - N/A   Clear
5:53 AM 30.9 °F 26.2 °F 25.0 °F 79% 29.81 in 10.0 mi Variable 4.6 mph - N/A   Clear
6:53 AM 37.9 °F - 26.1 °F 62% 29.80 in 10.0 mi Calm Calm - N/A   Clear
7:53 AM 39.9 °F - 28.9 °F 65% 29.81 in 10.0 mi Calm Calm - N/A   Clear
8:53 AM 60.1 °F - 26.1 °F 27% 29.75 in 10.0 mi West 15.0 mph - N/A   Clear
9:53 AM 63.0 °F - 23.0 °F 22% 29.76 in 10.0 mi WSW 25.3 mph 33.4 mph N/A   Clear
10:53 AM 64.0 °F - 21.9 °F 20% 29.71 in 10.0 mi WSW 15.0 mph - N/A   Clear
11:53 AM 64.9 °F - 19.0 °F 17% 29.67 in 10.0 mi WSW 17.3 mph 25.3 mph N/A   Clear
12:53 PM 66.9 °F - 19.0 °F 16% 29.65 in 10.0 mi North - - N/A   Clear
1:53 PM 69.1 °F - 16.0 °F 13% 29.60 in 10.0 mi WSW 28.8 mph 39.1 mph 0.00 in   Clear
2:53 PM 68.0 °F - 16.0 °F 14% 29.59 in 10.0 mi WSW 25.3 mph 29.9 mph N/A   Clear
3:53 PM 69.1 °F - 17.1 °F 14% 29.60 in 10.0 mi West 28.8 mph 42.6 mph 0.00 in   Clear
4:53 PM 64.9 °F - 18.0 °F 16% 29.63 in 10.0 mi WSW 24.2 mph 36.8 mph 0.00 in   Clear
5:53 PM 62.1 °F - 19.9 °F 20% 29.68 in 10.0 mi WSW 6.9 mph - N/A   Clear
6:53 PM 64.0 °F - 19.0 °F 18% 29.65 in 10.0 mi WSW 21.9 mph 31.1 mph N/A   Clear
7:53 PM 63.0 °F - 19.0 °F 18% 29.68 in 10.0 mi WSW 13.8 mph 28.8 mph N/A   Clear
8:53 PM 62.1 °F - 18.0 °F 18% 29.66 in 10.0 mi West 21.9 mph 29.9 mph N/A   Clear
9:53 PM 57.9 °F - 19.0 °F 22% 29.69 in 10.0 mi West 16.1 mph - N/A   Clear
10:53 PM 53.1 °F - 21.9 °F 30% 29.77 in 9.0 mi NNW 29.9 mph 44.9 mph 0.00 in Rain Light Rain
11:00 PM 48.9 °F - 24.1 °F 38% 29.89 in 8.0 mi NNW 32.2 mph 46.0 mph 0.00 in Rain Light Rain
11:25 PM 39.9 °F 28.6 °F 26.1 °F 58% 29.94 in 9.0 mi NW 28.8 mph 38.0 mph 0.00 in Rain Light Rain
11:53 PM 37.9 °F 28.5 °F 26.1 °F 62% 29.92 in 10.0 mi North 17.3 mph 25.3 mph 0.00 in   Clear